SAS831 EKCH-LTFM

Flight info

Callsign SAS831
Flight time 2h 20m
Altitude 39000
Route SIMEG Z493 XELOL DCT INDIG DCT LENOV DCT DUFES DCT KENIN DCT RUTUV DCT BUVAK DCT RIXEN
Aircraft A20N/M-SDE3FGIJ1RWXY/ALB1

Departure

Time 2026-04-26 14:00
Airport Copenhagen Kastrup Airport (EKCH)

Arrival

Time 2026-04-26 16:20
Airport İstanbul Airport (LTFM)
Time Latitude Longitude Altitude Speed Heading
2026-04-26 13:27 55.62629 12.64420 22 ft 0 kts 41°
2026-04-26 13:49 55.62628 12.64419 22 ft 2 kts 41°
2026-04-26 13:49 55.62609 12.64389 22 ft 4 kts 41°
2026-04-26 13:49 55.62589 12.64358 26 ft 4 kts 45°
2026-04-26 13:49 55.62571 12.64322 24 ft 4 kts 65°
2026-04-26 13:50 55.62568 12.64284 24 ft 2 kts 122°
2026-04-26 13:50 55.62569 12.64283 24 ft 0 kts 122°
2026-04-26 13:52 55.62566 12.64292 22 ft 2 kts 123°
2026-04-26 13:53 55.62551 12.64330 23 ft 5 kts 123°
2026-04-26 13:53 55.62523 12.64405 21 ft 10 kts 124°
2026-04-26 13:53 55.62481 12.64518 20 ft 12 kts 123°
2026-04-26 13:53 55.62437 12.64642 23 ft 12 kts 122°
2026-04-26 13:54 55.62387 12.64780 22 ft 14 kts 123°
2026-04-26 13:54 55.62332 12.64923 24 ft 14 kts 123°
2026-04-26 13:54 55.62273 12.65079 23 ft 17 kts 124°
2026-04-26 13:55 55.62113 12.65070 22 ft 16 kts 214°
2026-04-26 13:55 55.62047 12.64986 20 ft 19 kts 217°
2026-04-26 13:55 55.61772 12.64668 21 ft 19 kts 214°
2026-04-26 13:56 55.61657 12.64543 24 ft 20 kts 215°
2026-04-26 13:56 55.61537 12.64400 23 ft 22 kts 208°
2026-04-26 13:56 55.61426 12.64280 21 ft 18 kts 212°
2026-04-26 13:56 55.61318 12.64156 21 ft 17 kts 211°
2026-04-26 13:57 55.61207 12.64026 18 ft 20 kts 215°
2026-04-26 13:57 55.61120 12.63926 22 ft 14 kts 213°
2026-04-26 13:57 55.61032 12.63824 20 ft 16 kts 214°
2026-04-26 13:57 55.60937 12.63716 22 ft 17 kts 212°
2026-04-26 13:58 55.60825 12.63602 21 ft 19 kts 187°
2026-04-26 13:58 55.60721 12.63725 23 ft 20 kts 130°
2026-04-26 13:58 55.60719 12.63936 23 ft 18 kts 56°
2026-04-26 13:58 55.60812 12.64087 26 ft 19 kts 41°
2026-04-26 13:59 55.61000 12.64370 19 ft 67 kts 41°
2026-04-26 13:59 55.61506 12.65145 18 ft 123 kts 41°
2026-04-26 13:59 55.62270 12.66292 68 ft 158 kts 33°
2026-04-26 14:00 55.64685 12.69937 1321 ft 182 kts 36°
2026-04-26 14:00 55.65698 12.71516 1570 ft 205 kts 36°
2026-04-26 14:00 55.66439 12.72641 1819 ft 220 kts 37°
2026-04-26 14:01 55.68109 12.75153 2432 ft 248 kts 37°
2026-04-26 14:01 55.69218 12.77579 3192 ft 262 kts 60°
2026-04-26 14:01 55.69644 12.80759 4029 ft 273 kts 90°
2026-04-26 14:01 55.69122 12.83996 4881 ft 279 kts 122°
2026-04-26 14:02 55.67841 12.86586 5729 ft 281 kts 136°
2026-04-26 14:02 55.66439 12.89035 6584 ft 285 kts 136°
2026-04-26 14:02 55.65029 12.91469 7361 ft 289 kts 136°
2026-04-26 14:02 55.63557 12.94010 8102 ft 295 kts 135°
2026-04-26 14:03 55.62077 12.96575 8818 ft 301 kts 135°
2026-04-26 14:03 55.60588 12.99166 9542 ft 307 kts 134°
2026-04-26 14:03 55.59051 13.01850 10249 ft 315 kts 134°
2026-04-26 14:03 55.57440 13.04676 10427 ft 338 kts 134°
2026-04-26 14:04 55.55698 13.07728 10703 ft 356 kts 134°
2026-04-26 14:04 55.53944 13.10793 11248 ft 363 kts 134°
2026-04-26 14:04 55.52133 13.13943 11860 ft 368 kts 134°
2026-04-26 14:04 55.50272 13.17172 12479 ft 373 kts 134°
2026-04-26 14:05 55.48432 13.20357 13090 ft 378 kts 134°
2026-04-26 14:05 55.46544 13.23626 13698 ft 383 kts 134°
2026-04-26 14:05 55.44631 13.26938 14291 ft 388 kts 134°
2026-04-26 14:05 55.42690 13.30292 14840 ft 393 kts 134°
2026-04-26 14:06 55.40728 13.33668 15390 ft 397 kts 135°
2026-04-26 14:06 55.38741 13.37080 15935 ft 401 kts 135°
2026-04-26 14:06 55.36735 13.40526 16469 ft 405 kts 135°
2026-04-26 14:06 55.34709 13.44010 17005 ft 410 kts 135°
2026-04-26 14:07 55.32661 13.47525 17546 ft 414 kts 135°
2026-04-26 14:07 55.30593 13.51071 18080 ft 418 kts 135°
2026-04-26 14:07 55.28498 13.54650 18611 ft 422 kts 135°
2026-04-26 14:07 55.26382 13.58250 19100 ft 426 kts 135°
2026-04-26 14:08 55.24246 13.61882 19604 ft 429 kts 135°
2026-04-26 14:08 55.22094 13.65539 20125 ft 433 kts 136°
2026-04-26 14:08 55.19924 13.69219 20643 ft 436 kts 136°
2026-04-26 14:08 55.17741 13.72920 21151 ft 439 kts 136°
2026-04-26 14:09 55.15538 13.76653 21631 ft 442 kts 136°
2026-04-26 14:09 55.13321 13.80403 22111 ft 445 kts 136°
2026-04-26 14:09 55.11085 13.84172 22605 ft 448 kts 136°
2026-04-26 14:09 55.08832 13.87965 23097 ft 451 kts 136°
2026-04-26 14:10 55.06566 13.91780 23566 ft 455 kts 136°
2026-04-26 14:10 55.04281 13.95622 24001 ft 458 kts 136°
2026-04-26 14:10 55.01978 13.99482 24399 ft 461 kts 136°
2026-04-26 14:10 54.99657 14.03359 24790 ft 463 kts 136°
2026-04-26 14:11 54.94975 14.11157 25539 ft 469 kts 137°
2026-04-26 14:11 54.92609 14.15084 25901 ft 471 kts 138°
2026-04-26 14:11 54.90057 14.18652 26258 ft 472 kts 147°
2026-04-26 14:12 54.87360 14.21931 26616 ft 475 kts 147°
2026-04-26 14:12 54.84645 14.25224 26972 ft 477 kts 147°
2026-04-26 14:12 54.81918 14.28524 27315 ft 479 kts 147°
2026-04-26 14:12 54.79176 14.31832 27656 ft 482 kts 147°
2026-04-26 14:13 54.73619 14.38408 28333 ft 486 kts 149°
2026-04-26 14:13 54.70786 14.41616 28668 ft 488 kts 149°
2026-04-26 14:13 54.67925 14.44803 29000 ft 490 kts 149°
2026-04-26 14:14 54.65050 14.47987 29330 ft 492 kts 149°
2026-04-26 14:14 54.62160 14.51190 29648 ft 495 kts 149°
2026-04-26 14:14 54.59261 14.54419 29982 ft 497 kts 149°
2026-04-26 14:14 54.56355 14.57672 30294 ft 499 kts 149°
2026-04-26 14:15 54.53440 14.60944 30623 ft 500 kts 149°
2026-04-26 14:15 54.50529 14.64209 31029 ft 499 kts 149°
2026-04-26 14:15 54.47628 14.67460 31432 ft 498 kts 149°
2026-04-26 14:15 54.44726 14.70700 31839 ft 496 kts 150°
2026-04-26 14:16 54.41832 14.73921 32248 ft 495 kts 150°
2026-04-26 14:16 54.38941 14.77131 32647 ft 494 kts 150°
2026-04-26 14:16 54.36057 14.80323 33069 ft 493 kts 150°
2026-04-26 14:16 54.33179 14.83503 33481 ft 492 kts 150°
2026-04-26 14:17 54.30307 14.86675 33891 ft 491 kts 150°
2026-04-26 14:17 54.27481 14.89958 34295 ft 491 kts 144°
2026-04-26 14:17 54.24860 14.93708 34628 ft 492 kts 141°
2026-04-26 14:17 54.22261 14.97505 34939 ft 491 kts 141°
2026-04-26 14:18 54.19667 15.01292 35243 ft 490 kts 141°
2026-04-26 14:18 54.17079 15.05062 35539 ft 489 kts 142°
2026-04-26 14:18 54.14484 15.08829 35828 ft 489 kts 142°
2026-04-26 14:18 54.11897 15.12573 36109 ft 488 kts 142°
2026-04-26 14:19 54.09307 15.16307 36388 ft 487 kts 142°
2026-04-26 14:19 54.06718 15.20033 36659 ft 487 kts 142°
2026-04-26 14:19 54.04137 15.23746 36921 ft 486 kts 142°
2026-04-26 14:19 54.01554 15.27460 37178 ft 486 kts 142°
2026-04-26 14:20 53.98974 15.31163 37437 ft 485 kts 142°
2026-04-26 14:20 53.96398 15.34858 37669 ft 485 kts 142°
2026-04-26 14:20 53.93822 15.38546 37900 ft 484 kts 142°
2026-04-26 14:20 53.91249 15.42224 38132 ft 484 kts 142°
2026-04-26 14:21 53.88677 15.45894 38361 ft 483 kts 142°
2026-04-26 14:21 53.86106 15.49556 38582 ft 482 kts 142°
2026-04-26 14:21 53.83539 15.53208 38790 ft 482 kts 142°
2026-04-26 14:21 53.80973 15.56855 38992 ft 481 kts 142°
2026-04-26 14:22 53.78412 15.60491 39146 ft 481 kts 142°
2026-04-26 14:22 53.75845 15.64127 39278 ft 481 kts 142°
2026-04-26 14:22 53.73277 15.67757 39314 ft 482 kts 142°
2026-04-26 14:23 53.68129 15.75014 39308 ft 482 kts 142°
2026-04-26 14:23 53.62973 15.82250 39307 ft 483 kts 142°
2026-04-26 14:24 53.57835 15.89430 39308 ft 483 kts 142°
2026-04-26 14:24 53.52660 15.96653 39302 ft 484 kts 142°
2026-04-26 14:25 53.47445 16.03923 39301 ft 484 kts 142°
2026-04-26 14:25 53.42286 16.11074 39305 ft 484 kts 142°
2026-04-26 14:26 53.37079 16.18256 39302 ft 485 kts 142°
2026-04-26 14:26 53.31867 16.25422 39297 ft 485 kts 142°
2026-04-26 14:27 53.26650 16.32588 39299 ft 485 kts 142°
2026-04-26 14:27 53.21425 16.39744 39288 ft 488 kts 142°
2026-04-26 14:28 53.16129 16.46959 39284 ft 495 kts 142°
2026-04-26 14:28 53.10747 16.54265 39280 ft 502 kts 142°
2026-04-26 14:29 53.05297 16.61649 39281 ft 508 kts 142°
2026-04-26 14:29 53.00681 16.67872 39278 ft 512 kts 142°
2026-04-26 14:30 52.95128 16.75357 39283 ft 516 kts 142°
2026-04-26 14:30 52.89531 16.82869 39272 ft 519 kts 143°
2026-04-26 14:31 52.83902 16.90382 39275 ft 520 kts 143°
2026-04-26 14:31 52.78264 16.97896 39280 ft 521 kts 143°
2026-04-26 14:32 52.72613 17.05409 39280 ft 522 kts 143°
2026-04-26 14:32 52.66941 17.12910 39286 ft 523 kts 143°
2026-04-26 14:33 52.61264 17.20396 39289 ft 523 kts 143°
2026-04-26 14:33 52.55577 17.27867 39289 ft 523 kts 143°
2026-04-26 14:34 52.49879 17.35325 39292 ft 524 kts 143°
2026-04-26 14:34 52.44179 17.42759 39283 ft 524 kts 143°
2026-04-26 14:35 52.38475 17.50185 39284 ft 524 kts 143°
2026-04-26 14:35 52.32767 17.57594 39281 ft 524 kts 143°
2026-04-26 14:36 52.27043 17.64966 39280 ft 524 kts 143°
2026-04-26 14:36 52.21321 17.72332 39280 ft 524 kts 143°
2026-04-26 14:37 52.15597 17.79682 39279 ft 524 kts 143°
2026-04-26 14:37 52.09870 17.87015 39276 ft 524 kts 143°
2026-04-26 14:38 52.04135 17.94322 39277 ft 524 kts 143°
2026-04-26 14:38 51.98393 18.01582 39252 ft 522 kts 144°
2026-04-26 14:39 51.92600 18.08681 39248 ft 522 kts 145°
2026-04-26 14:39 51.86762 18.15670 39246 ft 522 kts 145°
2026-04-26 14:40 51.80924 18.22653 39247 ft 522 kts 145°
2026-04-26 14:40 51.75132 18.29608 39250 ft 523 kts 145°
2026-04-26 14:41 51.69293 18.36605 39255 ft 523 kts 145°
2026-04-26 14:41 51.63443 18.43597 39259 ft 524 kts 145°
2026-04-26 14:42 51.57541 18.50603 39262 ft 524 kts 145°
2026-04-26 14:42 51.51671 18.57552 39264 ft 524 kts 145°
2026-04-26 14:43 51.45805 18.64489 39264 ft 524 kts 146°
2026-04-26 14:43 51.39933 18.71422 39265 ft 524 kts 146°
2026-04-26 14:44 51.34100 18.78284 39238 ft 523 kts 146°
2026-04-26 14:44 51.28228 18.85145 39244 ft 523 kts 146°
2026-04-26 14:45 51.22337 18.92006 39245 ft 524 kts 146°
2026-04-26 14:45 51.16452 18.98848 39244 ft 524 kts 146°
2026-04-26 14:46 51.10560 19.05677 39241 ft 524 kts 146°
2026-04-26 14:46 51.04657 19.12496 39246 ft 525 kts 146°
2026-04-26 14:47 50.98741 19.19308 39257 ft 525 kts 146°
2026-04-26 14:47 50.92820 19.26113 39256 ft 526 kts 146°
2026-04-26 14:48 50.86888 19.32897 39255 ft 526 kts 146°
2026-04-26 14:48 50.80949 19.39661 39237 ft 525 kts 146°
2026-04-26 14:49 50.75022 19.46397 39235 ft 524 kts 146°
2026-04-26 14:49 50.69094 19.53112 39235 ft 524 kts 146°
2026-04-26 14:50 50.63168 19.59814 39240 ft 524 kts 146°
2026-04-26 14:50 50.57234 19.66495 39221 ft 524 kts 147°
2026-04-26 14:51 50.51294 19.73160 39221 ft 524 kts 147°
2026-04-26 14:51 50.45355 19.79803 39214 ft 524 kts 147°
2026-04-26 14:52 50.39406 19.86437 39212 ft 525 kts 147°
2026-04-26 14:52 50.33447 19.93056 39223 ft 526 kts 147°
2026-04-26 14:53 50.27480 19.99673 39214 ft 525 kts 147°
2026-04-26 14:53 50.21514 20.06259 39213 ft 525 kts 147°
2026-04-26 14:54 50.15541 20.12829 39211 ft 525 kts 147°
2026-04-26 14:54 50.09568 20.19387 39210 ft 525 kts 147°
2026-04-26 14:55 50.03590 20.25937 39199 ft 526 kts 147°
2026-04-26 14:55 49.97610 20.32478 39195 ft 526 kts 147°
2026-04-26 14:56 49.91613 20.39007 39197 ft 526 kts 147°
2026-04-26 14:56 49.85612 20.45508 39203 ft 526 kts 148°
2026-04-26 14:57 49.79613 20.51989 39201 ft 526 kts 148°
2026-04-26 14:57 49.73616 20.58447 39197 ft 525 kts 148°
2026-04-26 14:58 49.67617 20.64877 39197 ft 525 kts 148°
2026-04-26 14:58 49.61624 20.71294 39193 ft 524 kts 148°
2026-04-26 14:59 49.55636 20.77701 39192 ft 524 kts 148°
2026-04-26 14:59 49.49650 20.84084 39188 ft 523 kts 148°
2026-04-26 15:00 49.43656 20.90441 39193 ft 523 kts 148°
2026-04-26 15:00 49.37665 20.96773 39188 ft 523 kts 148°
2026-04-26 15:01 49.31548 21.02741 39190 ft 518 kts 155°
2026-04-26 15:01 49.25192 21.07933 39190 ft 517 kts 156°
2026-04-26 15:02 49.18861 21.13090 39179 ft 516 kts 156°
2026-04-26 15:02 49.12520 21.18244 39183 ft 515 kts 155°
2026-04-26 15:03 49.06198 21.23372 39184 ft 515 kts 156°
2026-04-26 15:03 48.99869 21.28486 39178 ft 515 kts 156°
2026-04-26 15:04 48.93654 21.33932 39186 ft 518 kts 148°
2026-04-26 15:04 48.87707 21.40101 39186 ft 518 kts 148°
2026-04-26 15:05 48.81752 21.46261 39186 ft 518 kts 148°
2026-04-26 15:05 48.75782 21.52394 39189 ft 518 kts 148°
2026-04-26 15:06 48.69814 21.58519 39174 ft 518 kts 148°
2026-04-26 15:06 48.63844 21.64632 39182 ft 518 kts 148°
2026-04-26 15:07 48.54844 21.73809 39177 ft 518 kts 148°
2026-04-26 15:07 48.48866 21.79879 39175 ft 518 kts 149°
2026-04-26 15:08 48.42891 21.85931 39177 ft 517 kts 149°
2026-04-26 15:08 48.36961 21.91926 39176 ft 517 kts 149°
2026-04-26 15:09 48.31112 21.98214 39176 ft 518 kts 144°
2026-04-26 15:09 48.25472 22.04959 39174 ft 518 kts 143°
2026-04-26 15:10 48.21728 22.09500 39175 ft 518 kts 143°
2026-04-26 15:10 48.15143 22.17232 39176 ft 517 kts 144°
2026-04-26 15:11 48.09428 22.23763 39173 ft 517 kts 145°
2026-04-26 15:11 48.03719 22.30294 39167 ft 517 kts 144°
2026-04-26 15:12 47.98034 22.36829 39176 ft 515 kts 144°
2026-04-26 15:12 47.92471 22.43541 39176 ft 514 kts 142°
2026-04-26 15:13 47.87022 22.50427 39171 ft 513 kts 141°
2026-04-26 15:13 47.81573 22.57275 39170 ft 513 kts 142°
2026-04-26 15:14 47.76078 22.64041 39165 ft 512 kts 142°
2026-04-26 15:14 47.70577 22.70755 39163 ft 512 kts 142°
2026-04-26 15:15 47.65083 22.77469 39160 ft 511 kts 142°
2026-04-26 15:15 47.59595 22.84178 39159 ft 511 kts 142°
2026-04-26 15:16 47.54103 22.90870 39158 ft 511 kts 142°
2026-04-26 15:16 47.48611 22.97539 39155 ft 511 kts 142°
2026-04-26 15:17 47.44044 23.03070 39151 ft 511 kts 142°
2026-04-26 15:17 47.37620 23.10826 39143 ft 510 kts 143°
2026-04-26 15:18 47.32124 23.17437 39139 ft 510 kts 143°
2026-04-26 15:18 47.26639 23.24039 39134 ft 509 kts 142°
2026-04-26 15:19 47.21155 23.30613 39130 ft 508 kts 143°
2026-04-26 15:19 47.15670 23.37161 39128 ft 507 kts 143°
2026-04-26 15:20 47.10191 23.43677 39128 ft 506 kts 143°
2026-04-26 15:20 47.04724 23.50165 39120 ft 505 kts 143°
2026-04-26 15:21 46.99260 23.56644 39113 ft 505 kts 143°
2026-04-26 15:21 46.93802 23.63094 39109 ft 504 kts 143°
2026-04-26 15:22 46.88349 23.69521 39104 ft 503 kts 143°
2026-04-26 15:22 46.82889 23.75920 39102 ft 503 kts 143°
2026-04-26 15:23 46.77436 23.82309 39104 ft 503 kts 143°
2026-04-26 15:23 46.71982 23.88693 39106 ft 502 kts 144°
2026-04-26 15:24 46.66530 23.95056 39106 ft 502 kts 144°
2026-04-26 15:24 46.61070 24.01395 39108 ft 502 kts 144°
2026-04-26 15:25 46.56486 24.06699 39085 ft 502 kts 144°
2026-04-26 15:25 46.50138 24.14041 39068 ft 502 kts 144°
2026-04-26 15:26 46.44685 24.20334 39062 ft 501 kts 144°
2026-04-26 15:26 46.39214 24.26620 39057 ft 501 kts 144°
2026-04-26 15:27 46.33755 24.32881 39056 ft 500 kts 144°
2026-04-26 15:27 46.28307 24.39132 39064 ft 499 kts 145°
2026-04-26 15:28 46.22872 24.45345 39069 ft 497 kts 145°
2026-04-26 15:28 46.17446 24.51509 39075 ft 495 kts 145°
2026-04-26 15:29 46.12040 24.57640 39089 ft 493 kts 145°
2026-04-26 15:30 46.01278 24.69816 39076 ft 491 kts 146°
2026-04-26 15:30 45.95904 24.75873 39073 ft 491 kts 146°
2026-04-26 15:31 45.87841 24.84918 39066 ft 490 kts 146°
2026-04-26 15:32 45.80686 24.92918 39063 ft 490 kts 146°
2026-04-26 15:32 45.74394 24.99942 39062 ft 490 kts 145°
2026-04-26 15:33 45.69010 25.05943 39047 ft 491 kts 145°
2026-04-26 15:33 45.63615 25.11939 39044 ft 492 kts 145°
2026-04-26 15:34 45.58199 25.17929 39027 ft 493 kts 145°
2026-04-26 15:34 45.52761 25.23922 39008 ft 494 kts 144°
2026-04-26 15:35 45.47314 25.29917 38997 ft 496 kts 144°
2026-04-26 15:35 45.41853 25.35935 38987 ft 497 kts 144°
2026-04-26 15:36 45.36369 25.41959 38977 ft 498 kts 144°
2026-04-26 15:36 45.30866 25.47959 38977 ft 499 kts 144°
2026-04-26 15:37 45.25347 25.53959 38975 ft 500 kts 144°
2026-04-26 15:37 45.19828 25.59966 38967 ft 500 kts 144°
2026-04-26 15:38 45.14303 25.65966 38954 ft 500 kts 144°
2026-04-26 15:38 45.08738 25.71991 38957 ft 500 kts 144°
2026-04-26 15:39 45.03216 25.77952 38948 ft 499 kts 144°
2026-04-26 15:39 44.98633 25.82895 38946 ft 498 kts 144°
2026-04-26 15:40 44.92239 25.89773 38929 ft 497 kts 145°
2026-04-26 15:40 44.86679 25.95723 38896 ft 499 kts 145°
2026-04-26 15:41 44.81172 26.01611 38890 ft 501 kts 145°
2026-04-26 15:41 44.75584 26.07571 38888 ft 501 kts 145°
2026-04-26 15:42 44.70019 26.13487 38888 ft 501 kts 145°
2026-04-26 15:42 44.64475 26.19366 38865 ft 498 kts 145°
2026-04-26 15:43 44.58945 26.25213 38866 ft 497 kts 145°
2026-04-26 15:44 44.50656 26.33962 38873 ft 497 kts 145°
2026-04-26 15:44 44.42364 26.42672 38879 ft 497 kts 145°
2026-04-26 15:45 44.34043 26.51381 38893 ft 498 kts 144°
2026-04-26 15:46 44.25758 26.60044 38896 ft 499 kts 144°
2026-04-26 15:46 44.22040 26.63916 38895 ft 499 kts 144°
2026-04-26 15:47 44.11848 26.74477 38889 ft 498 kts 144°
2026-04-26 15:48 44.06283 26.80233 38892 ft 499 kts 144°
2026-04-26 15:48 44.00720 26.85986 38889 ft 498 kts 144°
2026-04-26 15:49 43.95154 26.91720 38895 ft 498 kts 144°
2026-04-26 15:49 43.89592 26.97428 38896 ft 497 kts 144°
2026-04-26 15:50 43.84037 27.03099 38899 ft 496 kts 144°
2026-04-26 15:50 43.79392 27.07850 38898 ft 495 kts 144°
2026-04-26 15:51 43.73869 27.13505 38902 ft 493 kts 144°
2026-04-26 15:51 43.68361 27.19115 38876 ft 490 kts 144°
2026-04-26 15:52 43.62869 27.24683 38876 ft 489 kts 144°
2026-04-26 15:52 43.57380 27.30239 38881 ft 489 kts 144°
2026-04-26 15:53 43.51928 27.35749 38883 ft 489 kts 144°
2026-04-26 15:53 43.46431 27.41294 38880 ft 490 kts 144°
2026-04-26 15:54 43.40919 27.46833 38890 ft 491 kts 144°
2026-04-26 15:54 43.35402 27.52373 38896 ft 489 kts 144°
2026-04-26 15:54 43.32696 27.55087 38882 ft 475 kts 144°
2026-04-26 15:55 43.30055 27.57730 38887 ft 464 kts 144°
2026-04-26 15:55 43.24874 27.62906 38888 ft 459 kts 144°
2026-04-26 15:56 43.19714 27.68055 38891 ft 458 kts 144°
2026-04-26 15:56 43.14555 27.73183 38699 ft 459 kts 145°
2026-04-26 15:56 43.11968 27.75747 38114 ft 459 kts 145°
2026-04-26 15:57 43.09383 27.78307 37518 ft 459 kts 144°
2026-04-26 15:57 43.06794 27.80868 36946 ft 459 kts 144°
2026-04-26 15:57 43.04210 27.83428 36369 ft 459 kts 144°
2026-04-26 15:57 43.02466 27.85156 36019 ft 458 kts 144°
2026-04-26 15:58 42.99072 27.88517 35484 ft 452 kts 144°
2026-04-26 15:58 42.96533 27.91027 35084 ft 449 kts 144°
2026-04-26 15:58 42.94016 27.93508 34677 ft 445 kts 144°
2026-04-26 15:58 42.91516 27.95970 34295 ft 441 kts 144°
2026-04-26 15:59 42.89036 27.98409 33895 ft 438 kts 144°
2026-04-26 15:59 42.86575 28.00826 33417 ft 435 kts 144°
2026-04-26 15:59 42.84129 28.03228 32942 ft 432 kts 144°
2026-04-26 15:59 42.81700 28.05614 32475 ft 429 kts 145°
2026-04-26 16:00 42.79281 28.07989 32015 ft 427 kts 145°
2026-04-26 16:00 42.76880 28.10342 31574 ft 425 kts 145°
2026-04-26 16:00 42.74486 28.12680 31133 ft 422 kts 146°
2026-04-26 16:00 42.72102 28.15002 30716 ft 420 kts 146°
2026-04-26 16:01 42.69732 28.17309 30300 ft 417 kts 146°
2026-04-26 16:01 42.67389 28.19594 29632 ft 413 kts 146°
2026-04-26 16:01 42.65063 28.21862 28966 ft 409 kts 146°
2026-04-26 16:01 42.62759 28.24108 28333 ft 405 kts 146°
2026-04-26 16:02 42.60478 28.26330 27721 ft 401 kts 146°
2026-04-26 16:02 42.58222 28.28527 27111 ft 398 kts 146°
2026-04-26 16:02 42.55985 28.30702 26516 ft 394 kts 146°
2026-04-26 16:02 42.54486 28.32159 26105 ft 391 kts 146°
2026-04-26 16:03 42.51573 28.34984 25309 ft 386 kts 146°
2026-04-26 16:03 42.49394 28.37091 24714 ft 383 kts 146°
2026-04-26 16:03 42.47235 28.39174 24128 ft 379 kts 146°
2026-04-26 16:03 42.45096 28.41239 23552 ft 376 kts 146°
2026-04-26 16:04 42.42976 28.43284 22885 ft 373 kts 146°
2026-04-26 16:04 42.40873 28.45312 22224 ft 369 kts 146°
2026-04-26 16:04 42.38791 28.47317 21586 ft 366 kts 146°
2026-04-26 16:04 42.36726 28.49309 20955 ft 363 kts 146°
2026-04-26 16:05 42.34680 28.51282 20356 ft 360 kts 146°
2026-04-26 16:05 42.32652 28.53235 19762 ft 357 kts 146°
2026-04-26 16:05 42.30639 28.55171 19183 ft 354 kts 146°
2026-04-26 16:05 42.28642 28.57087 18620 ft 351 kts 146°
2026-04-26 16:06 42.26661 28.58988 18043 ft 348 kts 146°
2026-04-26 16:06 42.24697 28.60875 17422 ft 345 kts 146°
2026-04-26 16:06 42.22754 28.62739 16829 ft 342 kts 146°
2026-04-26 16:06 42.20823 28.64587 16240 ft 339 kts 146°
2026-04-26 16:07 42.18909 28.66416 15668 ft 337 kts 146°
2026-04-26 16:07 42.16998 28.68238 15305 ft 335 kts 146°
2026-04-26 16:07 42.15096 28.70049 14962 ft 334 kts 146°
2026-04-26 16:07 42.13207 28.71849 14620 ft 332 kts 146°
2026-04-26 16:08 42.11327 28.73641 14275 ft 331 kts 146°
2026-04-26 16:08 42.10062 28.74783 14033 ft 329 kts 152°
2026-04-26 16:08 42.07227 28.76177 13576 ft 323 kts 173°
2026-04-26 16:08 42.05006 28.76319 13202 ft 317 kts 187°
2026-04-26 16:09 42.02813 28.76109 12749 ft 314 kts 187°
2026-04-26 16:09 42.00639 28.75904 12102 ft 312 kts 187°
2026-04-26 16:09 41.98486 28.75706 11468 ft 309 kts 186°
2026-04-26 16:09 41.96350 28.75516 10853 ft 307 kts 186°
2026-04-26 16:10 41.94229 28.75327 10248 ft 304 kts 186°
2026-04-26 16:10 41.92125 28.75137 9671 ft 301 kts 186°
2026-04-26 16:10 41.90047 28.74950 9072 ft 298 kts 186°
2026-04-26 16:10 41.87989 28.74766 8472 ft 295 kts 186°
2026-04-26 16:11 41.85954 28.74582 7887 ft 291 kts 187°
2026-04-26 16:11 41.83942 28.74400 7319 ft 288 kts 187°
2026-04-26 16:11 41.81951 28.74222 6764 ft 286 kts 187°
2026-04-26 16:11 41.79988 28.74045 6446 ft 285 kts 187°
2026-04-26 16:12 41.78017 28.73868 6151 ft 283 kts 187°
2026-04-26 16:12 41.76060 28.73691 5833 ft 281 kts 187°
2026-04-26 16:12 41.72152 28.73338 5189 ft 278 kts 187°
2026-04-26 16:13 41.70229 28.73163 4890 ft 276 kts 187°
2026-04-26 16:13 41.68321 28.72990 4756 ft 275 kts 187°
2026-04-26 16:13 41.66415 28.72817 4769 ft 274 kts 187°
2026-04-26 16:13 41.64568 28.72606 4765 ft 258 kts 194°
2026-04-26 16:14 41.62865 28.72156 4770 ft 243 kts 189°
2026-04-26 16:14 41.61220 28.72074 4769 ft 230 kts 182°
2026-04-26 16:14 41.58227 28.72153 4806 ft 199 kts 182°
2026-04-26 16:15 41.56769 28.72178 4769 ft 221 kts 182°
2026-04-26 16:15 41.55208 28.72208 4768 ft 228 kts 182°
2026-04-26 16:15 41.53639 28.72240 4704 ft 229 kts 182°
2026-04-26 16:16 41.50484 28.72303 4159 ft 223 kts 182°
2026-04-26 16:16 41.48941 28.72334 3865 ft 220 kts 182°
2026-04-26 16:16 41.47421 28.72363 3576 ft 217 kts 182°
2026-04-26 16:16 41.45926 28.72393 3295 ft 213 kts 182°
2026-04-26 16:17 41.44454 28.72421 3016 ft 210 kts 182°
2026-04-26 16:17 41.43007 28.72449 2739 ft 207 kts 182°
2026-04-26 16:17 41.41582 28.72477 2469 ft 203 kts 182°
2026-04-26 16:17 41.40183 28.72504 2204 ft 200 kts 182°
2026-04-26 16:18 41.38804 28.72531 1955 ft 196 kts 182°
2026-04-26 16:18 41.36135 28.72584 1420 ft 186 kts 182°
2026-04-26 16:19 41.33738 28.72632 991 ft 155 kts 182°
2026-04-26 16:19 41.32717 28.72652 804 ft 141 kts 181°
2026-04-26 16:19 41.31131 28.72681 502 ft 133 kts 181°
2026-04-26 16:20 41.29913 28.72715 373 ft 132 kts 182°
2026-04-26 16:20 41.28381 28.72723 333 ft 67 kts 180°
2026-04-26 16:20 41.27994 28.72738 334 ft 43 kts 175°
2026-04-26 16:21 41.27766 28.72848 334 ft 25 kts 150°
2026-04-26 16:21 41.27621 28.72952 331 ft 20 kts 152°
2026-04-26 16:21 41.27544 28.72970 331 ft 10 kts 180°
2026-04-26 16:21 41.27475 28.72971 333 ft 8 kts 179°
2026-04-26 16:22 41.27439 28.72971 333 ft 4 kts 179°
2026-04-26 16:22 41.27398 28.72972 333 ft 7 kts 179°
2026-04-26 16:22 41.27336 28.72973 330 ft 10 kts 179°
2026-04-26 16:22 41.27253 28.72975 332 ft 13 kts 179°
2026-04-26 16:23 41.27150 28.72976 332 ft 16 kts 179°
2026-04-26 16:23 41.27026 28.72977 331 ft 19 kts 180°
2026-04-26 16:23 41.26956 28.72986 331 ft 4 kts 159°
2026-04-26 16:23 41.26947 28.73019 333 ft 5 kts 98°
2026-04-26 16:24 41.26947 28.73072 331 ft 7 kts 99°
2026-04-26 16:24 41.26908 28.73104 332 ft 8 kts 176°
2026-04-26 16:24 41.26842 28.73106 332 ft 11 kts 179°
2026-04-26 16:24 41.26754 28.73107 332 ft 14 kts 179°
2026-04-26 16:25 41.26647 28.73109 330 ft 17 kts 178°
2026-04-26 16:25 41.26526 28.73113 331 ft 16 kts 179°
2026-04-26 16:25 41.26407 28.73115 334 ft 14 kts 179°
2026-04-26 16:25 41.26301 28.73119 332 ft 17 kts 179°
2026-04-26 16:26 41.26191 28.73120 330 ft 15 kts 178°
2026-04-26 16:26 41.26120 28.73122 334 ft 16 kts 179°
2026-04-26 16:26 41.25985 28.73125 330 ft 16 kts 179°
2026-04-26 16:26 41.25875 28.73127 334 ft 16 kts 179°
2026-04-26 16:27 41.25762 28.73131 334 ft 17 kts 180°
2026-04-26 16:27 41.25646 28.73135 331 ft 17 kts 168°
2026-04-26 16:27 41.25609 28.73255 334 ft 15 kts 92°
2026-04-26 16:27 41.25611 28.73398 334 ft 16 kts 88°
2026-04-26 16:28 41.25612 28.73540 334 ft 15 kts 89°
2026-04-26 16:28 41.25612 28.73613 334 ft 8 kts 88°
2026-04-26 16:28 41.25641 28.73660 332 ft 7 kts 22°
2026-04-26 16:28 41.25682 28.73637 334 ft 7 kts 340°
2026-04-26 16:29 41.25710 28.73636 334 ft 0 kts